FW3192 Weather Reports


time (UTC)temp
C
wind
direction
speed
KPH
gust
KPH
rain 1hr
cm
rain 24hr
cm
rain mn
cm
humidity
%
barometer
mb
20260504004517 16 259 14.5 24.1 0.00 0.00 0.00 81 1013.9
20260504003012 16 214 16.1 27.4 0.00 0.00 0.00 81 1013.6
20260504001510 16 264 16.1 27.4 0.00 0.00 0.00 83 1013.6
20260504000050 16 246 12.9 22.5 0.00 0.00 0.00 84 1013.3
20260503234546 16 255 11.3 24.1 0.00 0.00 0.00 85 1013.2
20260503233028 15 344 16.1 30.6 0.00 0.00 0.00 85 1013.0
20260503231525 15 194 9.7 22.5 0.00 0.00 0.00 86 1012.9
20260503230020 15 255 8.0 24.1 0.00 0.00 0.00 87 1012.6
20260503224518 15 237 11.3 22.5 0.00 0.00 0.00 90 1012.4
20260503223018 14 269 8.0 19.3 0.00 0.00 0.00 90 1012.3
20260503221513 14 302 9.7 20.9 0.00 0.00 0.00 91 1011.9
20260503220011 14 270 11.3 22.5 0.00 0.00 0.00 91 1011.7
20260503214511 14 284 8.0 22.5 0.00 0.00 0.00 89 1011.4
20260503213054 14 266 9.7 19.3 0.00 0.00 0.00 89 1011.4
20260503211554 14 280 6.4 14.5 0.00 0.00 0.00 89 1011.4
20260503210052 14 225 6.4 17.7 0.00 0.00 0.00 89 1011.3
20260503204551 13 261 6.4 16.1 0.00 0.00 0.00 89 1011.2
20260503203055 13 288 9.7 19.3 0.00 0.00 0.00 89 1010.9
20260503201550 13 277 8.0 25.7 0.00 0.00 0.00 90 1010.7
20260503200049 13 285 11.3 27.4 0.00 0.00 0.00 89 1010.7
20260503194548 14 275 12.9 25.7 0.00 0.00 0.00 87 1010.5
20260503193047 14 294 9.7 24.1 0.00 0.00 0.00 87 1010.4
20260503191545 15 230 9.7 25.7 0.00 0.00 0.00 84 1010.4
20260503190046 15 256 14.5 24.1 0.00 0.00 0.00 82 1010.3
20260503184547 15 267 11.3 29.0 0.00 0.00 0.00 82 1010.3
20260503183041 15 260 9.7 20.9 0.00 0.00 0.00 83 1010.3
20260503181541 15 276 12.9 22.5 0.00 0.00 0.00 83 1010.3
20260503180042 15 280 14.5 25.7 0.00 0.00 0.00 83 1010.3
20260503174531 14 294 12.9 24.1 0.00 0.00 0.00 83 1010.3
20260503173026 14 266 12.9 24.1 0.00 0.00 0.00 83 1010.5
20260503171527 14 325 12.9 25.7 0.00 0.00 0.00 84 1010.5
20260503081515 15 309 14.5 24.1 0.00 0.00 0.00 77 1010.1
20260503071551 16 291 20.9 37.0 0.00 0.00 0.00 73 1009.8
20260503060107 16 289 25.7 48.3 0.00 0.00 0.00 75 1009.8
20260503054542 17 293 25.7 43.5 0.00 0.00 0.00 59 1009.3
20260503053041 18 306 27.4 43.5 0.00 0.00 0.00 61 1009.2
20260503051526 18 265 22.5 48.3 0.00 0.00 0.00 57 1009.2
20260503050027 18 276 19.3 45.1 0.00 0.00 0.00 62 1009.3
20260503044525 18 291 27.4 0.0 0.00 0.00 0.00 59 1009.2
20260503043036 18 258 27.4 41.8 0.00 0.00 0.00 60 1009.2
20260503041523 18 309 17.7 45.1 0.00 0.00 0.00 60 1009.4
20260503040018 18 306 22.5 45.1 0.00 0.00 0.00 59 1009.4
20260503034515 18 286 24.1 46.7 0.00 0.00 0.00 59 1009.7
20260503033113 18 261 19.3 35.4 0.00 0.00 0.00 63 1009.9
20260503031559 18 292 22.5 37.0 0.00 0.00 0.00 64 1009.8
20260503024555 18 294 29.0 49.9 0.00 0.00 0.00 61 1010.1
20260503023059 17 303 29.0 46.7 0.00 0.00 0.00 69 1010.1
20260503021558 17 329 22.5 41.8 0.00 0.00 0.00 68 1010.3
20260503020056 17 290 33.8 48.3 0.00 0.00 0.00 67 1010.3
20260503014546 16 302 33.8 48.3 0.00 0.00 0.00 68 1010.4
20260503013044 16 297 29.0 48.3 0.00 0.00 0.00 67 1010.3
20260503011528 16 303 25.7 41.8 0.00 0.00 0.00 67 1010.4
20260503010024 16 289 25.7 45.1 0.00 0.00 0.00 69 1010.6